| time (UTC) | temp C | wind direction | speed KPH | gust KPH | rain 1hr cm | rain 24hr cm | rain mn cm | humidity % | barometer mb |
| 20260505052515 | 10 | 117 | 0.0 | 0.0 | 0.00 | 0.00 | 0.00 | 98 | 1012.2 |
| 20260505052013 | 10 | 117 | 0.0 | 0.0 | 0.00 | 0.00 | 0.00 | 98 | 1012.3 |
| 20260505051509 | 10 | 117 | 0.0 | 0.0 | 0.00 | 0.00 | 0.00 | 98 | 1012.2 |
| 20260505051008 | 10 | 117 | 0.0 | 0.0 | 0.00 | 0.00 | 0.00 | 97 | 1012.2 |
| 20260505050506 | 10 | 117 | 0.0 | 0.0 | 0.00 | 0.00 | 0.00 | 97 | 1012.2 |
| 20260505041433 | 10 | 150 | 0.0 | 0.0 | 0.00 | 0.00 | 0.00 | 97 | 1011.8 |
| 20260505040930 | 10 | 155 | 0.0 | 0.0 | 0.00 | 0.00 | 0.00 | 97 | 1011.7 |
| 20260505040428 | 10 | 154 | 0.0 | 0.0 | 0.00 | 0.00 | 0.00 | 97 | 1011.8 |
| 20260505035924 | 10 | 155 | 0.0 | 0.0 | 0.00 | 0.00 | 0.00 | 97 | 1011.3 |
| 20260505035420 | 10 | 154 | 0.0 | 0.0 | 0.00 | 0.00 | 0.00 | 97 | 1011.7 |
| 20260505034918 | 10 | 154 | 0.0 | 0.0 | 0.00 | 0.00 | 0.00 | 97 | 1011.6 |
| 20260505034414 | 10 | 155 | 0.0 | 0.0 | 0.00 | 0.00 | 0.00 | 96 | 1011.7 |
| 20260505033912 | 10 | 153 | 0.0 | 0.0 | 0.00 | 0.00 | 0.00 | 96 | 1011.7 |
| 20260505033408 | 10 | 135 | 0.0 | 0.0 | 0.00 | 0.00 | 0.00 | 96 | 1011.7 |
| 20260505032907 | 10 | 129 | 0.0 | 0.0 | 0.00 | 0.00 | 0.00 | 96 | 1011.6 |
| 20260505032402 | 10 | 153 | 0.0 | 0.0 | 0.00 | 0.00 | 0.00 | 96 | 1011.7 |
| 20260505031859 | 11 | 153 | 0.0 | 0.0 | 0.00 | 0.00 | 0.00 | 96 | 1011.8 |
| 20260505031356 | 11 | 164 | 0.0 | 0.0 | 0.00 | 0.00 | 0.00 | 95 | 1011.7 |
| 20260505030854 | 11 | 164 | 0.0 | 0.0 | 0.00 | 0.00 | 0.00 | 95 | 1011.7 |
| 20260505030349 | 11 | 168 | 0.0 | 0.0 | 0.00 | 0.00 | 0.00 | 95 | 1011.8 |
| 20260505025845 | 11 | 156 | 0.0 | 0.0 | 0.00 | 0.00 | 0.00 | 95 | 1011.8 |
| 20260505025343 | 11 | 154 | 0.0 | 0.0 | 0.00 | 0.00 | 0.00 | 95 | 1011.7 |
| 20260505024841 | 11 | 154 | 0.0 | 0.0 | 0.00 | 0.00 | 0.00 | 95 | 1011.7 |
| 20260505024339 | 11 | 154 | 0.0 | 0.0 | 0.00 | 0.00 | 0.00 | 94 | 1011.8 |
| 20260505023835 | 11 | 154 | 0.0 | 0.0 | 0.00 | 0.00 | 0.00 | 94 | 1011.8 |
| 20260505023332 | 11 | 154 | 0.0 | 0.0 | 0.00 | 0.00 | 0.00 | 93 | 1011.8 |
| 20260505022830 | 12 | 154 | 0.0 | 0.0 | 0.00 | 0.00 | 0.00 | 93 | 1011.9 |
| 20260505022326 | 12 | 157 | 0.0 | 0.0 | 0.00 | 0.00 | 0.00 | 93 | 1011.7 |
| 20260505021824 | 12 | 156 | 0.0 | 0.0 | 0.00 | 0.00 | 0.00 | 93 | 1011.7 |
| 20260505021320 | 12 | 156 | 0.0 | 0.0 | 0.00 | 0.00 | 0.00 | 93 | 1011.7 |
| 20260505020816 | 12 | 156 | 0.0 | 0.0 | 0.00 | 0.00 | 0.00 | 92 | 1011.6 |
| 20260505020312 | 12 | 156 | 0.0 | 1.6 | 0.00 | 0.00 | 0.00 | 91 | 1011.4 |
| 20260505015809 | 12 | 154 | 0.0 | 0.0 | 0.00 | 0.00 | 0.00 | 91 | 1011.6 |
| 20260505015306 | 12 | 154 | 0.0 | 1.6 | 0.00 | 0.00 | 0.00 | 91 | 1011.7 |
| 20260505014803 | 12 | 154 | 0.0 | 0.0 | 0.00 | 0.00 | 0.00 | 91 | 1011.7 |
| 20260505014300 | 12 | 153 | 0.0 | 0.0 | 0.00 | 0.00 | 0.00 | 90 | 1011.6 |
| 20260505013757 | 13 | 153 | 0.0 | 0.0 | 0.00 | 0.00 | 0.00 | 90 | 1011.6 |
| 20260505013255 | 13 | 155 | 0.0 | 1.6 | 0.00 | 0.00 | 0.00 | 90 | 1011.1 |
| 20260505012753 | 13 | 159 | 0.0 | 1.6 | 0.00 | 0.00 | 0.00 | 89 | 1011.2 |
| 20260505012250 | 13 | 160 | 0.0 | 0.0 | 0.00 | 0.00 | 0.00 | 88 | 1011.3 |
| 20260505011745 | 13 | 167 | 0.0 | 1.6 | 0.00 | 0.00 | 0.00 | 87 | 1011.3 |
| 20260505011242 | 13 | 149 | 0.0 | 1.6 | 0.00 | 0.00 | 0.00 | 87 | 1011.1 |
| 20260505010738 | 14 | 139 | 0.0 | 0.0 | 0.00 | 0.00 | 0.00 | 86 | 1011.3 |
| 20260505010234 | 14 | 140 | 0.0 | 0.0 | 0.00 | 0.00 | 0.00 | 86 | 1011.3 |
| 20260505005731 | 14 | 136 | 0.0 | 0.0 | 0.00 | 0.00 | 0.00 | 85 | 1011.0 |
| 20260505005228 | 15 | 149 | 0.0 | 1.6 | 0.00 | 0.00 | 0.00 | 85 | 1011.2 |
| 20260505004725 | 15 | 145 | 0.0 | 1.6 | 0.00 | 0.00 | 0.00 | 84 | 1011.4 |
| 20260505004221 | 15 | 161 | 1.6 | 1.6 | 0.00 | 0.00 | 0.00 | 83 | 1011.4 |
| 20260505003719 | 15 | 139 | 0.0 | 0.0 | 0.00 | 0.00 | 0.00 | 81 | 1011.3 |
| 20260505003217 | 15 | 134 | 0.0 | 1.6 | 0.00 | 0.00 | 0.00 | 81 | 1011.3 |
| 20260505002712 | 16 | 150 | 0.0 | 0.0 | 0.00 | 0.00 | 0.00 | 80 | 1011.3 |
| 20260505002210 | 16 | 149 | 0.0 | 0.0 | 0.00 | 0.00 | 0.00 | 78 | 1011.4 |
| 20260505001707 | 16 | 161 | 0.0 | 0.0 | 0.00 | 0.00 | 0.00 | 77 | 1011.2 |
| 20260505001205 | 17 | 148 | 0.0 | 0.0 | 0.00 | 0.00 | 0.00 | 76 | 1011.3 |
| 20260505000702 | 17 | 122 | 0.0 | 0.0 | 0.00 | 0.00 | 0.00 | 76 | 1011.4 |
| 20260505000200 | 17 | 150 | 1.6 | 1.6 | 0.00 | 0.00 | 0.00 | 75 | 1011.4 |
| 20260504235656 | 17 | 135 | 0.0 | 0.0 | 0.00 | 0.00 | 0.00 | 73 | 1011.4 |
| 20260504235152 | 18 | 133 | 0.0 | 0.0 | 0.00 | 0.00 | 0.00 | 71 | 1011.3 |
| 20260504234650 | 18 | 157 | 1.6 | 1.6 | 0.00 | 0.00 | 0.00 | 72 | 1011.4 |
| 20260504234147 | 18 | 42 | 1.6 | 1.6 | 0.00 | 0.00 | 0.00 | 64 | 1011.6 |
| 20260504233643 | 19 | 37 | 0.0 | 1.6 | 0.00 | 0.00 | 0.00 | 66 | 1011.6 |
| 20260504233139 | 20 | 51 | 1.6 | 3.2 | 0.00 | 0.00 | 0.00 | 60 | 1011.4 |
| 20260504232636 | 20 | 297 | 1.6 | 1.6 | 0.00 | 0.00 | 0.00 | 61 | 1011.6 |
| 20260504232133 | 20 | 95 | 0.0 | 1.6 | 0.00 | 0.00 | 0.00 | 62 | 1011.6 |
| 20260504231630 | 21 | 23 | 0.0 | 1.6 | 0.00 | 0.00 | 0.00 | 56 | 1011.4 |
| 20260504231126 | 21 | 74 | 1.6 | 3.2 | 0.00 | 0.00 | 0.00 | 55 | 1011.6 |
| 20260504230622 | 21 | 49 | 1.6 | 3.2 | 0.00 | 0.00 | 0.00 | 50 | 1011.7 |
| 20260504230121 | 22 | 257 | 0.0 | 3.2 | 0.00 | 0.00 | 0.00 | 50 | 1011.8 |
| 20260504225619 | 22 | 95 | 1.6 | 3.2 | 0.00 | 0.00 | 0.00 | 47 | 1012.0 |
| 20260504225115 | 22 | 304 | 3.2 | 6.4 | 0.00 | 0.00 | 0.00 | 49 | 1011.7 |
| 20260504224612 | 22 | 338 | 3.2 | 4.8 | 0.00 | 0.00 | 0.00 | 46 | 1011.7 |
| 20260504224109 | 22 | 312 | 9.7 | 14.5 | 0.00 | 0.00 | 0.00 | 48 | 1011.8 |
| 20260504223606 | 22 | 40 | 1.6 | 3.2 | 0.00 | 0.00 | 0.00 | 49 | 1011.9 |
| 20260504223101 | 22 | 342 | 1.6 | 3.2 | 0.00 | 0.00 | 0.00 | 49 | 1011.6 |
| 20260504222558 | 22 | 41 | 1.6 | 4.8 | 0.00 | 0.00 | 0.00 | 47 | 1011.7 |
| 20260504222055 | 22 | 212 | 1.6 | 3.2 | 0.00 | 0.00 | 0.00 | 52 | 1011.9 |
| 20260504221553 | 22 | 288 | 0.0 | 4.8 | 0.00 | 0.00 | 0.00 | 47 | 1011.8 |
| 20260504221049 | 22 | 308 | 1.6 | 4.8 | 0.00 | 0.00 | 0.00 | 49 | 1011.8 |
| 20260504220546 | 22 | 165 | 0.0 | 3.2 | 0.00 | 0.00 | 0.00 | 46 | 1011.8 |
| 20260504220043 | 22 | 343 | 4.8 | 9.7 | 0.00 | 0.00 | 0.00 | 45 | 1011.6 |
| 20260504215539 | 22 | 124 | 0.0 | 12.9 | 0.00 | 0.00 | 0.00 | 47 | 1011.9 |
| 20260504215037 | 22 | 168 | 1.6 | 6.4 | 0.00 | 0.00 | 0.00 | 47 | 1012.0 |
| 20260504214533 | 22 | 296 | 6.4 | 11.3 | 0.00 | 0.00 | 0.00 | 46 | 1012.0 |
| 20260504214029 | 22 | 242 | 0.0 | 1.6 | 0.00 | 0.00 | 0.00 | 55 | 1011.8 |
| 20260504213526 | 22 | 266 | 1.6 | 6.4 | 0.00 | 0.00 | 0.00 | 47 | 1011.7 |
| 20260504213023 | 22 | 36 | 3.2 | 4.8 | 0.00 | 0.00 | 0.00 | 47 | 1011.7 |
| 20260504212519 | 22 | 195 | 3.2 | 11.3 | 0.00 | 0.00 | 0.00 | 46 | 1011.8 |
| 20260504212017 | 22 | 300 | 3.2 | 9.7 | 0.00 | 0.00 | 0.00 | 47 | 1011.3 |
| 20260504211513 | 23 | 13 | 0.0 | 4.8 | 0.00 | 0.00 | 0.00 | 46 | 1011.3 |
| 20260504211011 | 22 | 146 | 3.2 | 14.5 | 0.00 | 0.00 | 0.00 | 46 | 1011.0 |
| 20260504210508 | 22 | 107 | 6.4 | 12.9 | 0.00 | 0.00 | 0.00 | 45 | 1011.2 |
| 20260504210004 | 22 | 93 | 4.8 | 9.7 | 0.00 | 0.00 | 0.00 | 45 | 1011.2 |
| 20260504205502 | 22 | 81 | 4.8 | 9.7 | 0.00 | 0.00 | 0.00 | 46 | 1011.2 |
| 20260504205000 | 22 | 54 | 3.2 | 3.2 | 0.00 | 0.00 | 0.00 | 51 | 1011.3 |
| 20260504204458 | 22 | 265 | 0.0 | 1.6 | 0.00 | 0.00 | 0.00 | 46 | 1011.4 |
| 20260504203957 | 22 | 32 | 4.8 | 9.7 | 0.00 | 0.00 | 0.00 | 45 | 1011.4 |
| 20260504203454 | 23 | 335 | 8.0 | 11.3 | 0.00 | 0.00 | 0.00 | 46 | 1011.4 |
| 20260504202950 | 23 | 328 | 1.6 | 4.8 | 0.00 | 0.00 | 0.00 | 47 | 1011.6 |
| 20260504202446 | 22 | 134 | 6.4 | 11.3 | 0.00 | 0.00 | 0.00 | 44 | 1011.4 |
| 20260504201943 | 22 | 123 | 1.6 | 3.2 | 0.00 | 0.00 | 0.00 | 47 | 1011.9 |
| 20260504201441 | 22 | 67 | 8.0 | 12.9 | 0.00 | 0.00 | 0.00 | 46 | 1011.7 |
| 20260504200938 | 22 | 182 | 4.8 | 6.4 | 0.00 | 0.00 | 0.00 | 45 | 1011.8 |
| 20260504200435 | 22 | 123 | 9.7 | 14.5 | 0.00 | 0.00 | 0.00 | 48 | 1012.0 |
| 20260504195931 | 22 | 134 | 11.3 | 14.5 | 0.00 | 0.00 | 0.00 | 45 | 1011.8 |
| 20260504195427 | 22 | 131 | 3.2 | 4.8 | 0.00 | 0.00 | 0.00 | 45 | 1012.0 |
| 20260504194924 | 22 | 123 | 3.2 | 12.9 | 0.00 | 0.00 | 0.00 | 47 | 1012.0 |
| 20260504194420 | 22 | 161 | 1.6 | 1.6 | 0.00 | 0.00 | 0.00 | 48 | 1011.7 |
| 20260504193916 | 21 | 357 | 9.7 | 12.9 | 0.00 | 0.00 | 0.00 | 47 | 1012.0 |
| 20260504193414 | 21 | 288 | 3.2 | 4.8 | 0.00 | 0.00 | 0.00 | 47 | 1012.1 |
| 20260504192912 | 21 | 326 | 1.6 | 3.2 | 0.00 | 0.00 | 0.00 | 47 | 1012.2 |
| 20260504192409 | 22 | 10 | 9.7 | 12.9 | 0.00 | 0.00 | 0.00 | 46 | 1012.2 |
| 20260504191908 | 22 | 124 | 1.6 | 11.3 | 0.00 | 0.00 | 0.00 | 46 | 1012.6 |
| 20260504191405 | 22 | 278 | 3.2 | 9.7 | 0.00 | 0.00 | 0.00 | 48 | 1012.4 |
| 20260504190900 | 22 | 196 | 9.7 | 20.9 | 0.00 | 0.00 | 0.00 | 46 | 1012.4 |
| 20260504190356 | 22 | 113 | 6.4 | 12.9 | 0.00 | 0.00 | 0.00 | 45 | 1012.3 |
| 20260504185853 | 22 | 129 | 12.9 | 17.7 | 0.00 | 0.00 | 0.00 | 47 | 1012.1 |
| 20260504185350 | 22 | 288 | 6.4 | 11.3 | 0.00 | 0.00 | 0.00 | 46 | 1012.0 |
| 20260504184846 | 22 | 179 | 8.0 | 11.3 | 0.00 | 0.00 | 0.00 | 46 | 1011.9 |
| 20260504184342 | 22 | 146 | 4.8 | 4.8 | 0.00 | 0.00 | 0.00 | 45 | 1012.2 |
| 20260504183838 | 22 | 153 | 11.3 | 14.5 | 0.00 | 0.00 | 0.00 | 46 | 1012.0 |
| 20260504183336 | 21 | 288 | 9.7 | 11.3 | 0.00 | 0.00 | 0.00 | 46 | 1012.5 |
| 20260504182833 | 22 | 141 | 9.7 | 24.1 | 0.00 | 0.00 | 0.00 | 46 | 1012.4 |
| 20260504182331 | 22 | 140 | 4.8 | 11.3 | 0.00 | 0.00 | 0.00 | 49 | 1012.4 |
| 20260504181827 | 21 | 186 | 14.5 | 17.7 | 0.00 | 0.00 | 0.00 | 47 | 1012.5 |
| 20260504181325 | 21 | 102 | 4.8 | 12.9 | 0.00 | 0.00 | 0.00 | 46 | 1012.7 |
| 20260504180824 | 21 | 111 | 3.2 | 14.5 | 0.00 | 0.00 | 0.00 | 47 | 1012.9 |
| 20260504180322 | 21 | 109 | 6.4 | 22.5 | 0.00 | 0.00 | 0.00 | 47 | 1013.0 |
| 20260504175820 | 21 | 157 | 6.4 | 14.5 | 0.00 | 0.00 | 0.00 | 49 | 1013.3 |
| 20260504175316 | 21 | 206 | 1.6 | 4.8 | 0.00 | 0.00 | 0.00 | 48 | 1012.9 |
| 20260504174815 | 21 | 224 | 1.6 | 16.1 | 0.00 | 0.00 | 0.00 | 47 | 1013.4 |
| 20260504174311 | 20 | 214 | 4.8 | 17.7 | 0.00 | 0.00 | 0.00 | 48 | 1013.3 |
| 20260504173808 | 20 | 159 | 3.2 | 6.4 | 0.00 | 0.00 | 0.00 | 54 | 1013.4 |
| 20260504173305 | 20 | 167 | 1.6 | 11.3 | 0.00 | 0.00 | 0.00 | 51 | 1013.4 |
| 20260504172802 | 20 | 127 | 11.3 | 22.5 | 0.00 | 0.00 | 0.00 | 49 | 1013.6 |
| 20260504172259 | 20 | 311 | 3.2 | 9.7 | 0.00 | 0.00 | 0.00 | 49 | 1013.9 |
| 20260504171754 | 19 | 8 | 3.2 | 20.9 | 0.00 | 0.00 | 0.00 | 53 | 1014.1 |
| 20260504171252 | 20 | 40 | 3.2 | 12.9 | 0.00 | 0.00 | 0.00 | 50 | 1014.0 |
| 20260504170749 | 20 | 1 | 1.6 | 12.9 | 0.00 | 0.00 | 0.00 | 50 | 1014.0 |
| 20260504170246 | 20 | 335 | 11.3 | 14.5 | 0.00 | 0.00 | 0.00 | 53 | 1014.1 |
| 20260504160204 | 17 | 285 | 1.6 | 4.8 | 0.00 | 0.00 | 0.00 | 58 | 1015.1 |
| 20260504151132 | 17 | 250 | 3.2 | 4.8 | 0.00 | 0.00 | 0.00 | 54 | 1015.5 |
| 20260504150630 | 17 | 232 | 3.2 | 6.4 | 0.00 | 0.00 | 0.00 | 55 | 1015.7 |
| 20260504150126 | 17 | 347 | 8.0 | 9.7 | 0.00 | 0.00 | 0.00 | 54 | 1015.5 |
| 20260504141055 | 17 | 149 | 4.8 | 24.1 | 0.00 | 0.00 | 0.00 | 52 | 1015.5 |
| 20260504140551 | 17 | 155 | 3.2 | 11.3 | 0.00 | 0.00 | 0.00 | 50 | 1015.4 |
| 20260504130516 | 14 | 124 | 9.7 | 14.5 | 0.00 | 0.00 | 0.00 | 56 | 1016.0 |
| 20260504110403 | 5 | 113 | 0.0 | 0.0 | 0.00 | 0.00 | 0.00 | 98 | 1015.8 |
| 20260504100320 | 6 | 108 | 0.0 | 0.0 | 0.00 | 0.00 | 0.00 | 97 | 1016.0 |
| 20260504081714 | 7 | 107 | 0.0 | 0.0 | 0.00 | 0.00 | 0.00 | 95 | 1016.7 |
| 20260504081210 | 7 | 108 | 0.0 | 0.0 | 0.00 | 0.00 | 0.00 | 95 | 1016.8 |
| 20260504080706 | 7 | 108 | 0.0 | 0.0 | 0.00 | 0.00 | 0.00 | 95 | 1016.9 |
| 20260504080203 | 7 | 108 | 0.0 | 0.0 | 0.00 | 0.00 | 0.00 | 95 | 1016.9 |
| 20260504070131 | 7 | 108 | 0.0 | 0.0 | 0.00 | 0.00 | 0.00 | 93 | 1017.0 |